Regional Weather Roundup
Issued by NWS

Home | Current Version | Previous Version | Graphics & Text | Print | Product List | Glossary On
Versions: 1 2 3 4 5 6 7 8 9 10 11 12 13 14 15 16 17 18 19 20 21 22 23 24 25 26 27 28 29 30 31 32 33 34 35 36 37 38 39 40 41 42 43 44 45 46 47 48 49 50
000
ASUS43 KFSD 050802
RWRSD

WEATHER ROUNDUP FOR SOUTH DAKOTA
NATIONAL WEATHER SERVICE SIOUX FALLS SD
300 AM CDT SUN JUL 05 2015

NOTE: "FAIR" INDICATES FEW OR NO CLOUDS BELOW 12,000 FEET WITH NO
SIGNIFICANT WEATHER AND/OR OBSTRUCTIONS TO VISIBILITY.


SDZ001>005-009-010-012>017-050900-
NORTHWEST AND NORTH CENTRAL SOUTH DAKOTA

CITY           SKY/WX    TMP DP  RH WIND       PRES   REMARKS
BUFFALO          N/A     72  55  55 S3        29.70F
FAITH            N/A     68  64  87 S14       29.75F
MOBRIDGE       CLEAR     72  71  97 SE7       29.69F
$$

SDZ012>016-024>037-041>051-057-063-072>074-050900-
SOUTHWEST AND SOUTH CENTRAL SOUTH DAKOTA

CITY           SKY/WX    TMP DP  RH WIND       PRES   REMARKS
RAPID CTY ARPT CLEAR     69  62  78 SW12      29.81F
PIERRE         CLEAR     71  67  87 SE8       29.72F
CUSTER         CLEAR     58  53  84 CALM      29.98F
ELLSWORTH AFB  CLEAR     69  63  80 SW8       29.80F
PHILIP         PTCLDY    67  63  87 W6        29.73F
PINE RIDGE     CLEAR     72  59  63 VRB3      29.83F
WINNER         FAIR      77  63  61 S15       29.76S
$$

SDZ004>011-016>023-039-040-050900-
NORTHEAST SOUTH DAKOTA

CITY           SKY/WX    TMP DP  RH WIND       PRES   REMARKS
ABERDEEN       TSTM      70  61  73 MISG      29.76F
WATERTOWN      CLOUDY    70  64  81 S10       29.82F
BROOKINGS      MOCLDY    70  61  73 S15       29.87F
SISSETON         N/A     73  65  75 SW15      29.77F
$$

SDZ017-020-022-023-036>040-048>070-050900-
SOUTHEAST SOUTH DAKOTA

CITY           SKY/WX    TMP DP  RH WIND       PRES   REMARKS
SIOUX FALLS    PTCLDY    70  62  76 S14       29.86F
HURON          LGT RAIN  70  67  90 SE12      29.77F
CHAMBERLAIN    PTCLDY    73  66  80 S10       29.75F
MITCHELL       CLOUDY    72  65  78 SE15G21   29.79F
YANKTON        CLOUDY    70  63  78 S9        29.84F
$$

ABBREVIATIONS USED IN REMARKS
   TC - TEMPERATURE IN CELSIUS
  WCI - WIND CHILL INDEX
   HX - HEAT INDEX
  VSB - VISIBILITY



USA.gov is the U.S. government's official web portal to all federal, state and local government web resources and services.